This is the latest recevied weather packets stored in our database for station/object NO4D. If no packets are shown the sender has not sent any weather packets the latest 10 day(s).
| Time | Temp. | Humidity | Pressure | Rain* | Wind** | Luminosity | Snow |
|---|---|---|---|---|---|---|---|
| 1778189365 | 25.56° C | 61% | 1008.4 hPa | 0 mm | - | 262 W/m² | - |
| 1778189061 | 25.56° C | 59% | 1008.1 hPa | 0 mm | - | 182 W/m² | - |
| 1778188758 | 25.56° C | 59% | 1008.1 hPa | 0 mm | - | 143 W/m² | - |
| 1778188455 | 25.56° C | 59% | 1007.9 hPa | 0 mm | - | 331 W/m² | - |
| 1778188151 | 26.11° C | 58% | 1007.8 hPa | 0 mm | - | 130 W/m² | - |
| 1778187848 | 27.22° C | 56% | 1007.6 hPa | 0 mm | - | 157 W/m² | - |
| 1778187545 | 27.22° C | 55% | 1007.8 hPa | 0 mm | - | 464 W/m² | - |
| 1778187243 | 27.22° C | 54% | 1007.9 hPa | 0 mm | - | 539 W/m² | - |
| 1778186938 | 27.78° C | 54% | 1007.8 hPa | 0 mm | - | 597 W/m² | - |
| 1778186635 | 27.78° C | 54% | 1007.6 hPa | 0 mm | - | 647 W/m² | - |
| 1778186333 | 26.67° C | 55% | 1007.5 hPa | 0 mm | - | 649 W/m² | - |
| 1778186031 | 27.78° C | 54% | 1007.5 hPa | 0 mm | - | 657 W/m² | - |
| 1778185727 | 27.22° C | 56% | 1007.6 hPa | 0 mm | - | 707 W/m² | - |
| 1778185423 | 26.67° C | 59% | 1007.6 hPa | 0 mm | - | 744 W/m² | - |
| 1778185119 | 26.11° C | 60% | 1007.6 hPa | 0 mm | - | 757 W/m² | - |
| 1778184814 | 26.67° C | 59% | 1007.8 hPa | 0 mm | - | 800 W/m² | - |
| 1778184511 | 26.11° C | 61% | 1007.6 hPa | 0 mm | - | 639 W/m² | - |
| 1778184207 | 26.11° C | 65% | 1007.8 hPa | 0 mm | - | 212 W/m² | - |
| 1778183903 | 26.11° C | 62% | 1007.8 hPa | 0 mm | - | 185 W/m² | - |
| 1778183601 | 26.67° C | 65% | 1007.9 hPa | 0 mm | - | 254 W/m² | - |
| 1778183298 | 25.56° C | 66% | 1007.7 hPa | 0 mm | - | 721 W/m² | - |
| 1778182994 | 25.56° C | 64% | 1008 hPa | 0 mm | - | 291 W/m² | - |
| 1778182691 | 26.11° C | 66% | 1008.4 hPa | 0 mm | - | 329 W/m² | - |
| 1778182388 | 26.11° C | 67% | 1008.2 hPa | 0 mm | - | 464 W/m² | - |
| 1778182083 | 25.56° C | 66% | 1008.4 hPa | 0 mm | - | 185 W/m² | - |
* Rain latest hour (hover to see other rain measurements)
** Current wind speed in m/s (hover to see current wind gust speed)